Vertical_Velocity
-2 3 1 1 6 -4 2 -2 1 -2 -2 -2 0 -3 -4 -1 4 -1 -2 -4 2 -0 0 0 2 -1 -1 -2 2 2 -3 -2 -3 -1 -1 6 -3 5 4 -3 -1 1 -1 3 0
1 0 0 1 -2 -0 -0 -2 0 -2 -3 -1 0 -0 -4 -2 1 -3 1 -2 3 -1 5 1 0 3 -1 -1 0 0 -3 1 1 1 -4 3 -5 6 0 6 0 -2 6 7 5
-1 2 1 3 2 1 -1 2 -2 1 -5 -3 -4 -1 -1 -1 0 -2 -3 -2 1 -1 2 1 0 2 -0 -0 -1 -2 -7 4 3 1 -8 0 2 1 3 -5 -2 -10 -2 0 0
-1 1 3 0 -0 2 -1 -2 -0 -1 -1 -1 -7 -2 -3 2 -3 0 2 1 -1 -0 -4 0 -0 2 -1 -1 -0 -5 1 4 1 3 -7 -6 -3 1 1 -1 -1 -2 -1 -6 1
-0 1 -1 4 3 3 1 0 -1 -2 -1 -3 -2 -4 -1 -1 6 -8 -1 1 -0 -1 -3 -1 1 1 -1 1 1 -7 5 3 1 1 -3 -3 -2 1 -8 2 2 0 -5 -2 -5
2 -1 -2 0 3 3 0 -0 -0 -1 0 -2 -3 -1 -4 -6 -5 -3 -1 0 1 1 -2 1 -1 0 -0 -2 -2 1 -1 1 1 5 -1 -6 1 -0 10 -2 -3 -4 -2 -1 3
1 1 3 -1 5 4 -2 -2 1 -0 -0 2 -3 -8 -9 10 -7 -4 -2 3 -2 -2 1 0 -1 1 -1 -0 -3 2 -7 2 5 0 -0 0 2 5 -2 -3 -3 -3 -5 -6 0
3 1 6 -3 3 5 4 -3 -1 -1 -1 0 -3 -6 -29 7 1 2 -11 7 1 -3 -0 6 0 -2 4 -1 -7 -4 3 -6 4 -0 8 2 -15 -1 -2 -5 -0 4 2 -2 5
2 2 5 -3 4 1 4 2 -2 0 0 -1 -2 -0 -24 -1 1 -5 -3 5 -0 -1 3 -0 1 1 1 -2 2 -6 -7 -1 1 -2 -0 2 -7 10 2 -1 -2 0 6 0 -5
2 1 4 -4 5 5 4 1 0 5 1 -4 -7 3 2 -2 -4 2 -3 1 -0 -0 0 -2 -0 2 -1 1 -10 -3 -3 -1 5 -0 -1 0 -15 -3 3 -1 3 9 -1 -2 1
3 2 4 4 7 0 4 4 5 -1 -2 -12 2 -0 3 -11 -0 -0 -4 3 1 -1 -2 2 -1 -22 8 8 4 2 0 -8 7 6 1 -2 -8 -10 -2 4 0 -6 2 -3 0
4 7 4 10 4 6 4 1 2 -2 -9 -1 6 -9 -0 -7 -4 2 1 2 -1 -4 5 3 -14 8 6 -0 -0 3 2 -8 -5 8 1 1 -8 -9 -7 -4 3 -3 -3 -4 -3
-0 9 10 18 -2 -11 0 4 8 0 -0 -16 -1 1 -5 6 -12 10 -3 -1 -4 -0 3 -2 -3 0 -1 0 2 1 -2 -3 -1 2 7 -6 -9 -3 -9 -5 -3 1 2 -0 -0
18 21 6 31 9 -2 -10 4 -0 8 -6 -5 -29 -21 -18 6 -8 -12 3 6 11 -6 3 4 3 -9 9 -1 5 1 2 1 2 2 -4 5 -10 -7 -4 -3 -1 1 0 3 1
-2 22 7 38 0 -14 2 6 8 -8 3 2 8 6 3 -7 11 -13 7 4 4 7 -2 -10 -5 -3 -1 -6 13 -5 3 1 3 5 6 -2 2 -4 -2 1 -2 -1 5 6 5
0 3 8 29 10 20 5 7 10 16 -17 0 -4 -5 -3 1 5 -0 1 3 9 10 3 8 6 -4 -2 1 -1 5 3 2 5 3 5 -7 -3 -10 -3 -2 3 5 3 3 3
-1 13 -4 1 3 6 20 18 30 -10 8 -4 -6 -13 7 2 2 -2 2 -3 -5 -1 -9 11 -8 6 9 6 3 0 7 -0 1 3 -6 -1 15 0 3 1 2 -0 -1 -4 -4
10 15 3 -9 34 16 23 43 6 -5 -8 1 -0 3 -4 -2 -3 0 3 0 2 2 4 -1 -3 8 4 -12 -3 -7 -4 -8 -4 -2 -2 4 -4 -7 4 3 -1 -2 -2 -1 1
21 2 11 -3 44 -15 21 30 -50 -13 -9 -11 5 8 -3 6 7 3 1 -0 3 -3 2 -2 -0 -3 5 -1 9 -0 1 -2 10 4 2 -5 -1 -0 -0 -0 1 1 -2 -5 -5
-3 13 6 -35 24 44 43 -17 -18 -2 -1 6 -6 3 -4 -10 1 4 -2 0 3 -1 5 3 -1 0 -1 3 3 0 9 5 5 -0 0 -1 -2 -7 -3 1 -0 -3 -1 2 -0
10 17 -10 9 42 49 -8 -28 -4 3 -4 -10 -5 -0 1 -6 -3 -9 -8 -14 -4 -0 6 6 2 -0 6 7 -1 6 6 3 3 2 -5 -2 -13 3 6 -1 -3 -3 -3 -2 3
19 21 -8 28 29 39 17 -17 13 3 -2 -9 -1 3 3 0 -0 2 -6 -2 -2 1 -4 1 5 5 -11 -6 3 2 1 4 0 -2 1 -0 -21 4 -4 0 -1 7 4 2 -1
11 18 1 22 -5 6 -0 -19 11 -4 -7 -3 -2 4 8 -0 -3 -6 -1 -4 5 -5 -4 -9 10 -1 2 5 1 0 0 1 2 1 -3 -2 -7 0 2 -7 2 -4 -6 -5 -6
24 13 20 45 41 1 -16 0 0 7 4 -6 -5 8 3 7 -4 -6 2 5 2 -1 -0 5 7 -4 -10 -4 -3 -3 -4 2 5 4 -6 -13 -33 23 -1 -2 9 -6 -12 -8 -7
7 8 -1 -20 2 -22 25 -5 1 -10 4 3 8 -22 -3 1 7 -2 6 3 2 1 4 6 -1 1 -1 -0 -3 2 1 0 -4 -2 -3 0 -18 11 9 -7 -6 -5 -9 -11 -8
2 9 23 9 14 9 16 -1 -3 -5 -13 -9 -6 8 12 -9 -12 -13 -2 -0 -14 -3 1 4 -3 5 1 4 -3 -9 3 3 3 -1 -9 -5 -25 -14 16 8 -5 -6 -5 -3 -6
9 -3 33 1 6 5 -26 -6 -4 5 -7 5 7 1 5 2 10 13 9 13 8 -3 -6 3 -0 -2 1 -4 -1 -3 -10 -7 5 1 1 -6 -1 -0 -16 -9 5 -1 -2 -7 -4
Height
3111 3113 3115 3116 3117 3118 3117 3117 3117 3119 3116 3118 3116 3117 3117 3117 3118 3116 3116 3116 3115 3115 3115 3115 3115 3116 3117 3118 3119 3119 3120 3117 3120 3123 3124 3126 3125 3127 3128 3129 3129 3132 3133 3134 3134
3105 3108 3110 3112 3113 3114 3113 3114 3113 3114 3113 3113 3114 3113 3113 3113 3114 3113 3113 3112 3112 3112 3113 3113 3113 3114 3115 3115 3116 3116 3115 3116 3119 3121 3121 3122 3122 3123 3125 3126 3128 3128 3129 3131 3131
3098 3100 3103 3106 3107 3109 3108 3108 3109 3108 3109 3108 3109 3111 3110 3109 3110 3109 3109 3108 3109 3110 3110 3111 3111 3112 3112 3113 3113 3112 3111 3115 3116 3118 3118 3117 3118 3120 3121 3124 3126 3125 3126 3127 3128
3091 3093 3096 3099 3102 3102 3103 3104 3104 3104 3104 3104 3105 3105 3107 3106 3109 3106 3106 3107 3107 3107 3108 3108 3108 3109 3110 3110 3110 3109 3110 3111 3112 3115 3114 3115 3115 3116 3118 3121 3123 3123 3123 3123 3125
3082 3085 3089 3092 3094 3096 3097 3098 3098 3098 3099 3099 3100 3101 3102 3101 3104 3103 3102 3103 3104 3103 3104 3105 3105 3105 3106 3106 3106 3105 3107 3107 3109 3109 3111 3112 3112 3112 3112 3116 3118 3118 3118 3118 3119
3073 3077 3080 3084 3088 3090 3090 3091 3092 3092 3092 3093 3094 3096 3095 3095 3099 3098 3097 3099 3100 3100 3101 3101 3101 3101 3101 3102 3103 3102 3102 3102 3103 3105 3106 3107 3108 3108 3110 3110 3111 3112 3111 3111 3112
3063 3067 3072 3075 3078 3083 3084 3084 3084 3085 3086 3086 3088 3090 3091 3092 3094 3095 3094 3095 3095 3096 3097 3098 3097 3098 3098 3099 3099 3098 3097 3097 3099 3101 3102 3102 3103 3104 3104 3103 3105 3106 3106 3106 3106
3052 3058 3063 3066 3070 3073 3077 3077 3077 3078 3078 3079 3080 3083 3084 3087 3087 3089 3089 3089 3091 3092 3093 3094 3093 3094 3094 3095 3095 3094 3094 3092 3095 3097 3098 3097 3096 3100 3100 3099 3100 3102 3102 3103 3104
3041 3047 3052 3057 3060 3065 3068 3069 3069 3070 3070 3070 3074 3077 3078 3080 3079 3082 3084 3084 3085 3087 3088 3088 3089 3089 3090 3091 3091 3090 3089 3090 3091 3093 3093 3093 3092 3094 3095 3094 3095 3098 3097 3095 3096
3030 3035 3041 3046 3051 3056 3059 3060 3062 3060 3060 3063 3066 3073 3074 3076 3075 3077 3078 3079 3080 3081 3083 3083 3083 3083 3084 3086 3085 3087 3087 3086 3086 3089 3090 3089 3088 3088 3090 3090 3091 3092 3091 3091 3091
3017 3022 3028 3034 3040 3044 3048 3052 3053 3051 3049 3056 3058 3060 3065 3068 3069 3070 3073 3073 3074 3075 3077 3076 3077 3076 3080 3083 3085 3084 3084 3082 3083 3085 3083 3084 3083 3084 3083 3084 3084 3085 3085 3086 3086
3005 3013 3015 3021 3027 3034 3036 3035 3041 3041 3043 3046 3048 3044 3056 3063 3061 3064 3067 3068 3068 3070 3071 3072 3067 3074 3077 3079 3079 3079 3079 3077 3077 3079 3078 3076 3074 3077 3078 3076 3076 3077 3078 3080 3082
2994 3002 3007 3005 3011 3018 3022 3028 3033 3038 3038 3029 3035 3032 3048 3051 3046 3054 3060 3061 3060 3062 3063 3064 3066 3071 3071 3071 3073 3073 3074 3076 3077 3074 3070 3070 3064 3066 3067 3068 3069 3069 3070 3072 3075
2981 2989 2997 2994 2997 3001 3011 3020 3027 3038 3036 3016 3021 3017 3029 3036 3024 3044 3048 3054 3050 3049 3057 3056 3059 3063 3063 3063 3069 3065 3070 3074 3074 3075 3069 3069 3062 3060 3062 3061 3062 3064 3066 3067 3068
2970 2977 2985 2983 2985 2990 2999 3008 3021 3035 3036 3014 3007 3010 3013 3021 3022 3028 3034 3036 3035 3041 3048 3043 3049 3054 3056 3058 3064 3061 3065 3067 3069 3068 3067 3065 3070 3050 3054 3054 3058 3059 3060 3060 3061
2956 2967 2971 2976 2972 2982 2987 3000 3014 3027 3005 2998 2997 3002 3008 3011 3016 3019 3022 3023 3027 3037 3037 3040 3045 3048 3050 3054 3058 3060 3060 3062 3062 3064 3060 3056 3063 3038 3046 3047 3050 3053 3053 3054 3055
2941 2951 2957 2962 2962 2972 2976 2988 3001 3001 2992 2988 2990 2997 3004 3006 3011 3014 3017 3017 3020 3027 3028 3034 3032 3037 3044 3048 3052 3055 3057 3059 3061 3061 3050 3047 3051 3038 3041 3043 3045 3046 3048 3050 3050
2924 2936 2943 2950 2956 2959 2965 2973 2970 2968 2982 2983 2983 2993 2999 3002 3006 3010 3012 3014 3015 3018 3021 3024 3027 3028 3028 3031 3041 3045 3050 3050 3052 3052 3046 3045 3038 3034 3035 3037 3038 3040 3041 3043 3042
2909 2919 2927 2930 2937 2944 2953 2950 2939 2950 2967 2980 2985 2987 2992 2997 3002 3005 3007 3008 3011 3015 3019 3018 3019 3020 3020 3024 3035 3036 3038 3045 3045 3045 3046 3038 3031 3029 3029 3030 3031 3033 3034 3035 3035
2890 2903 2908 2919 2926 2930 2933 2933 2937 2942 2957 2971 2976 2980 2985 2990 2997 2999 3001 3000 3004 3009 3012 3013 3016 3015 3018 3020 3024 3027 3033 3036 3038 3042 3039 3026 3024 3021 3022 3024 3026 3028 3029 3029 3027
2876 2888 2892 2909 2915 2915 2909 2915 2928 2933 2947 2962 2967 2973 2976 2984 2988 2990 2989 2994 3000 3000 3007 3008 3013 3015 3015 3016 3017 3022 3021 3024 3027 3027 3024 3025 3014 3012 3018 3019 3022 3024 3024 3022 3020
2861 2873 2877 2892 2897 2896 2900 2901 2920 2920 2937 2950 2958 2966 2969 2974 2977 2982 2981 2989 2991 2994 2999 3002 3006 3009 3010 3013 3014 3015 3016 3017 3016 3022 3021 3019 3004 3008 3015 3019 3021 3022 3019 3017 3015
2847 2859 2869 2870 2875 2877 2894 2901 2911 2915 2925 2939 2945 2956 2963 2966 2970 2972 2975 2977 2983 2985 2990 2994 2999 3006 3008 3009 3008 3010 3012 3012 3013 3015 3014 3020 3002 3008 3011 3014 3016 3012 3010 3009 3005
2838 2844 2851 2847 2864 2870 2881 2893 2903 2911 2920 2927 2937 2947 2954 2952 2955 2963 2965 2967 2973 2978 2984 2988 2991 2992 2993 2997 3000 3002 3006 3008 3010 3011 3010 3003 2999 3006 3006 3008 3007 3003 3000 2999 2997
2822 2825 2827 2826 2844 2857 2872 2884 2892 2904 2911 2919 2928 2934 2937 2946 2946 2953 2959 2959 2966 2972 2978 2983 2982 2986 2988 2991 2994 2997 3000 3001 3003 3004 3003 3003 2998 2997 3002 3001 2997 2995 2993 2990 2988
2810 2813 2819 2830 2837 2852 2862 2871 2879 2889 2898 2908 2915 2922 2932 2934 2936 2938 2945 2952 2953 2963 2971 2974 2977 2979 2984 2985 2986 2990 2994 2996 2997 2997 2996 2997 2989 2996 2991 2991 2990 2989 2987 2983 2980
2800 2814 2818 2824 2828 2843 2849 2864 2870 2880 2893 2903 2909 2917 2923 2925 2933 2937 2941 2946 2950 2952 2959 2966 2969 2975 2977 2980 2984 2982 2977 2984 2986 2988 2991 2988 2988 2989 2984 2981 2982 2981 2979 2975 2973